User: anonymous   Login
Location: Copeville
(33.0796°N, 96.4155°W)
Time: 05:32:28
(UTC+00:00)
Language:

DELTA 2 R/B (1) - Orbit

View from above orbital plane
View from above orbital plane
View from above satellite
View from above satellite

Ground track
Ground track

The orbit data is extracted from the following two-line orbital elements,

1 27665U 03005C   22139.75761611  .00000195  00000-0  11044-3 0  9993
2 27665  39.5766 316.3615 0007131  70.0019 305.9935 14.28609701  8042
Epoch (UTC): 19 May 2022 18:10:58
Eccentricity: 0.0007131
inclination: 39.5766°
perigee height: 791 km
apogee height: 801 km
right ascension of ascending node: 316.3615°
argument of perigee: 70.0019°
revolutions per day: 14.28609701
mean anomaly at epoch: 305.9935°
orbit number at epoch: 804

The dashed part of the orbit path shows where the satellite is in the earth's shadow,  

DLR